Location: Chervonnoye
(48.6000°N, 34.4000°E)
Time: 05:09:15
(UTC+00:00)

Cosmos 1743 Rocket - Pass Details

Date: 23 November 2020
Orbit: 603 x 634 km, 82.6° (Epoch: 18 January)

Event Time Altitude Azimuth Distance (km) Brightness Sun altitude
Rises 14:54:12 0° 350° (N) 2,943 6.9 -9.7°
Reaches altitude 10° 14:56:27 10° 350° (N) 2,029 6.1 -10.1°
Maximum altitude 15:00:58 88° 261° (W) 639 3.6 -10.8°
Drops below altitude 10° 15:05:25 10° 173° (S) 2,002 6.3 -11.5°
Sets 15:07:38 0° 173° (S) 2,901 7.1 -11.8°
